WetterOnline ( https://www.wetteronline.de )

Wetter aktuell Ofterschwang

Aktuelles Wetter: Oberstdorf (812m)

6-stündlich | Neueste Meldungen
Ortszeit Temperatur Wetter
Mo, 21.09. 2:00 12.1° C bewölkt
So, 20.09. 20:00 15.9° C leichter Regen
So, 20.09. 14:00 22.5° C leicht bewölkt
So, 20.09. 8:00 12.0° C wolkig
So, 20.09. 2:00 14.1° C wolkig
Sa, 19.09. 20:00 15.5° C bewölkt
Sa, 19.09. 14:00 22.7° C wolkenlos
Sa, 19.09. 8:00 8.1° C wolkenlos
Ortszeit Temperatur Wetter
Mo, 21.09. 4:30 10.6° C fast wolkenlos
Mo, 21.09. 4:20 10.6° C fast wolkenlos
Mo, 21.09. 4:10 10.1° C leicht bewölkt
Mo, 21.09. 4:00 10.8° C Nebel
Mo, 21.09. 3:50 10.8° C Nebel
Mo, 21.09. 3:40 10.9° C leicht bewölkt
Mo, 21.09. 3:30 10.7° C Nebel
Mo, 21.09. 3:00 10.3° C Nebel
Ortszeit Relative Feuchte Sichtweite
Mo, 21.09. 2:00 100% 50 km
So, 20.09. 20:00 91% 23 km
So, 20.09. 14:00 54% 35 km
So, 20.09. 8:00 98% 13 km
So, 20.09. 2:00 99% 19 km
Sa, 19.09. 20:00 90% 25 km
Sa, 19.09. 14:00 60% 40 km
Sa, 19.09. 8:00 100% 9 km
Ortszeit Relative Feuchte Sichtweite
Mo, 21.09. 4:30 99% 6 km
Mo, 21.09. 4:20 99% -
Mo, 21.09. 4:10 99% -
Mo, 21.09. 4:00 100% 100 m
Mo, 21.09. 3:50 100% -
Mo, 21.09. 3:40 100% -
Mo, 21.09. 3:30 100% 0.6 km
Mo, 21.09. 3:00 97% 0.3 km
Ortszeit Niederschlagsmenge Niederschlagsart
Mo, 21.09. 2:00 4 l/m2 in 6 Std. Regen
So, 20.09. 20:00 6 l/m2 in 12 Std. Regen
So, 20.09. 14:00 0.0 l/m2 in 6 Std. -
So, 20.09. 8:00 0.1 l/m2 in 12 Std. -
So, 20.09. 2:00 0.1 l/m2 in 6 Std. Regen
Sa, 19.09. 20:00 0.0 l/m2 in 12 Std. -
Sa, 19.09. 14:00 0.0 l/m2 in 6 Std. -
Sa, 19.09. 8:00 0.0 l/m2 in 12 Std. -
Ortszeit Niederschlagsmenge Niederschlagsart
Mo, 21.09. 4:30 0.1 l/m2 in 1 Std. -
Mo, 21.09. 4:20 keine Meldung -
Mo, 21.09. 4:10 keine Meldung -
Mo, 21.09. 4:00 0.0 l/m2 in 1 Std. -
Mo, 21.09. 3:50 keine Meldung -
Mo, 21.09. 3:40 keine Meldung -
Mo, 21.09. 3:30 0.0 l/m2 in 1 Std. -
Mo, 21.09. 3:00 0.0 l/m2 in 1 Std. -
Ortszeit Stärke Spitze Richtung
km/h Bft. km/h Grad Sektor
Mo, 21.09. 2:00 7 2 29 190° S
So, 20.09. 20:00 14 3 43 160° S
So, 20.09. 14:00 11 2 22 330° NW
So, 20.09. 8:00 4 1 11 150° SO
So, 20.09. 2:00 7 2 11 160° S
Sa, 19.09. 20:00 7 2 29 160° S
Sa, 19.09. 14:00 14 3 22 360° N
Sa, 19.09. 8:00 4 1 7 160° S
Ortszeit Stärke Spitze Richtung
km/h Bft. km/h Grad Sektor
Mo, 21.09. 4:30 6 1 7 200° S
Mo, 21.09. 4:20 6 1 - 200° S
Mo, 21.09. 4:10 6 1 - 150° SO
Mo, 21.09. 4:00 4 1 7 220° SW
Mo, 21.09. 3:50 4 1 - 220° SW
Mo, 21.09. 3:40 6 1 - 130° SO
Mo, 21.09. 3:30 6 1 7 190° S
Mo, 21.09. 3:00 4 1 11 180° S
Ortszeit Untergrenze Bedeckung Gattung
total tief tief mittel hoch
Mo, 21.09. 2:00 <30 m 7/8 0/8 - - -
So, 20.09. 20:00 1800 m 8/8 8/8 - - -
So, 20.09. 14:00 9000 m 6/8 0/8 - - -
So, 20.09. 8:00 3900 m 6/8 6/8 - - -
So, 20.09. 2:00 2700 m 8/8 3/8 - - -
Sa, 19.09. 20:00 5100 m 7/8 7/8 - - -
Sa, 19.09. 14:00 - 0/8 0/8 - - -
Sa, 19.09. 8:00 - 0/8 0/8 - - -
Ortszeit Bedeckungsgrad in Achtel und Wolkenuntergrenze
Mo, 21.09. 4:30 1(<30m)
Mo, 21.09. 4:20 1(<30m)
Mo, 21.09. 4:10 3(<30m)
Mo, 21.09. 4:00 3(<30m) 4(2700m)
Mo, 21.09. 3:50 3(<30m) 4(2700m)
Mo, 21.09. 3:40 1(30m) 4(3000m)
Mo, 21.09. 3:30 1(<30m) 5(3000m)
Mo, 21.09. 3:00 1(<30m)
Ortszeit Stationsdruck (hPa) Tendenz (hPa in 3 Std.)
Mo, 21.09. 2:00 924 + 0,2
So, 20.09. 20:00 924 + 2,6
So, 20.09. 14:00 922 - 0,7
So, 20.09. 8:00 923 - 0,5
So, 20.09. 2:00 924 - 0,8
Sa, 19.09. 20:00 925 - 0,1
Sa, 19.09. 14:00 926 - 0,5
Sa, 19.09. 8:00 926 - 0,7
Ortszeit Stationsdruck (hPa) Tendenz (hPa in 3 Std.)
Mo, 21.09. 4:30 924 0,0
Mo, 21.09. 4:20 924 keine Meldung
Mo, 21.09. 4:10 924 keine Meldung
Mo, 21.09. 4:00 924 + 0,3
Mo, 21.09. 3:50 924 keine Meldung
Mo, 21.09. 3:40 924 keine Meldung
Mo, 21.09. 3:30 924 + 0,1
Mo, 21.09. 3:00 924 + 0,1
Ortszeit Schneehöhe (cm)
Mo, 21.09. 2:00 0
So, 20.09. 20:00 0
So, 20.09. 14:00 0
So, 20.09. 8:00 0
So, 20.09. 2:00 0
Sa, 19.09. 20:00 0
Sa, 19.09. 14:00 0
Sa, 19.09. 8:00 0
Ortszeit Schneehöhe (cm)
Mo, 21.09. 4:30 0
Mo, 21.09. 4:20 0
Mo, 21.09. 4:10 0
Mo, 21.09. 4:00 0
Mo, 21.09. 3:50 0
Mo, 21.09. 3:40 0
Mo, 21.09. 3:30 0
Mo, 21.09. 3:00 0
Link zu dieser Seite / Seite empfehlen

Das Wetter in ...